This demonstration page uses our WeatherBlox Daily Observations layout. Learn more.

Left ArrowRight Arrow

39.12711, -84.51439

Hourly Observations for January 2, 2018

Temp ( °F °C ) Dew Point ( °F °C ) Humidity (%) Winds ( mph kmh ) Pressure ( in mb ) Visibility ( mi km ) Precip ( " mm )
12:53 am 00:53 Clear N/A -10 -23.3 62 62 WNW 5 7 30.79 1043 10 16 N/A
1:53 am 01:53 Clear -1 -18.3 -11 -23.9 62 62 WNW 7 11 30.78 1042 10 16 N/A
2:53 am 02:53 Clear -1 -18.3 -11 -23.9 62 62 N 7 11 30.78 1042 10 16 N/A
3:53 am 03:53 Clear -2 -18.9 -10 -23.3 68 68 WNW 5 7 30.78 1042 10 16 N/A
4:53 am 04:53 Clear -3 -19.4 -11 -23.9 68 68 NNW 6 9 30.77 1042 10 16 N/A
5:53 am 05:53 Clear -3 -19.4 -11 -23.9 68 68 N N/A 30.76 1042 10 16 N/A
6:53 am 06:53 Clear -4 -20 -9 -22.8 79 79 N N/A 30.78 1042 10 16 N/A
7:53 am 07:53 Clear -3 -19.4 -9 -22.8 75 75 SW 8 13 30.78 1042 10 16 N/A
8:53 am 08:53 Sunny -1 -18.3 -8 -22.2 72 72 WSW 6 9 30.79 1043 10 16 N/A
9:53 am 09:53 Sunny 1 -17.2 -7 -21.7 68 68 WSW 6 9 30.78 1042 10 16 N/A
10:53 am 10:53 Sunny 4 -15.6 -5 -20.6 66 66 VRB 3 6 30.77 1042 10 16 N/A
11:53 am 11:53 Sunny 9 -12.8 -3 -19.4 58 58 W 3 6 30.73 1041 10 16 N/A
12:53 pm 12:53 Sunny 12 -11.1 -1 -18.3 56 56 SSW 7 11 30.68 1039 10 16 N/A
1:53 pm 13:53 Sunny 16 -8.9 1 -17.2 51 51 SW 6 9 30.64 1038 10 16 N/A
2:53 pm 14:53 Sunny 18 -7.8 3 -16.1 52 52 WSW 7 11 30.60 1036 10 16 N/A
3:53 pm 15:53 Sunny 19 -7.2 2 -16.7 47 47 SW 7 11 30.58 1036 10 16 N/A
4:53 pm 16:53 Sunny 17 -8.3 2 -16.7 51 51 SSW 7 11 30.55 1035 10 16 N/A
5:53 pm 17:53 Clear 14 -10 1 -17.2 56 56 SSW 5 7 30.53 1034 10 16 N/A
6:53 pm 18:53 Clear 11 -11.7 2 -16.7 67 67 N N/A 30.52 1034 10 16 N/A
7:53 pm 19:53 Clear 9 -12.8 3 -16.1 77 77 N N/A 30.50 1033 10 16 N/A
8:53 pm 20:53 Clear 7 -13.9 2 -16.7 80 80 N N/A 30.48 1032 10 16 N/A
9:53 pm 21:53 Clear 3 -16.1 N/A 87 87 N N/A 30.47 1032 10 16 N/A
10:53 pm 22:53 Clear 2 -16.7 N/A 91 91 N N/A 30.44 1031 10 16 N/A
11:53 pm 23:53 Clear 3 -16.1 -1 -18.3 83 83 N N/A 30.42 1030 10 16 N/A

Powered by AerisWeather